Weather in Onufriivka

Ukraine / Kirovohrad Region     48°54′16″N   33°27′11″E
temp.,
°C
wind,
m/s
gust,
m/s
humid.,
%
clouds,
%
prec.,
mm/h
press.,
hPa
HPBL,
m
13 april, tue
tue1300:00+11s2571100 0.0 1021197
03:00+10sse2476100 0.0 1021189
06:00+10se2380100 0.0 1021162
09:00+11se347468 0.0 1021543
12:00+13se346475 0.0 10201007
15:00+14s4458100 0.1 10191021
18:00+14se2362100 0.0 1019746
21:00+12s2570100 0.1 1019354
14 april, wed
wed1400:00+11ssw2476100 0.0 1019289
03:00+10s2477100 0.0 1018217
06:00+10sse238391 0.0 1018132
09:00+11sse237225 0.0 1018537
12:00+15se345387 0.1 10171543
15:00+15se3453100 0.2 10151187
18:00+14se345599 0.0 1014874
21:00+12ese356520 0.0 1015141
15 april, thu
thu1500:00+10sse3763100 0.0 1014217
03:00+9se3773100 0.0 1013244
06:00+8se3582100 0.1 1013284
09:00+9se4891100 0.9 1013504
12:00+10se5784100 0.4 1012692
15:00+9ese4892100 2.5 1012497
18:00+10se1283100 2.8 1012118
21:00+9ssw478572 3.4 1012478
16 april, fri
fri1600:00+7s259098 0.0 1012304
03:00+6s488661 0.1 1012486
06:00+6s5888100 0.0 1012894
09:00+5s5990100 0.1 1013805
12:00+5s61089100 0.5 1014878
15:00+8ssw6107199 1.1 10141163
18:00+7ssw51171100 0.0 10151258
21:00+6ssw387895 0.0 1016665
17 april, sat
sat1700:00+7s3879100 0.1 1016703
03:00+7s5981100 0.2 1017832
06:00+6s3783100 0.2 1017520
09:00+7s3478100 0.3 1018565
12:00+8ssw237695 0.0 1019578
15:00+10wnw2267100 0.0 1019724
18:00+9n117294 0.0 1020237
21:00+8ese117796 0.0 102010